Regional Weather Roundup
Issued by NWS

Home | Current Version | Previous Version | Graphics & Text | Print | Product List | Glossary On
Versions: 1 2 3 4 5 6 7 8 9 10 11 12 13 14 15 16 17 18 19 20 21 22 23 24 25 26 27 28 29 30 31 32 33 34 35 36 37 38 39 40 41 42 43 44 45 46 47 48 49 50
000
ASUS43 KIND 022109
RWRIN

WEATHER ROUNDUP FOR INDIANA
NATIONAL WEATHER SERVICE INDIANAPOLIS IN
500 PM EDT SUN AUG 02 2015

NOTE: "FAIR" INDICATES FEW OR NO CLOUDS BELOW 12,000 FEET WITH NO
SIGNIFICANT WEATHER AND/OR OBSTRUCTIONS TO VISIBILITY.

* - STATION DOES NOT REPORT WEATHER SUCH AS PRECIPITATION OR FOG.

+ - STATION NOT QUALITY CONTROLLED BY THE NATIONAL WEATHER SERVICE.
    USE DATA WITH CAUTION...ESPECIALLY DEWPOINT AND RELATIVE
    HUMIDITY OBSERVATIONS.

INZ001>003-010>013-019-020-022200-
NORTHWEST INDIANA

CITY           SKY/WX    TMP DP  RH WIND       PRES   REMARKS
GARY /AIRPORT/ PTSUNNY   88  68  51 SW17G33   29.77S
KNOX *+        SUNNY     88  61  40 SW20G25   29.78F
LA PORTE +     SUNNY     88  63  43 SW13G23   29.78F
MICHIGAN CITY+ SUNNY     84  61  45 SW10G21   29.76F
MONTICELLO +   SUNNY     89  67  48 SW18G26   29.82F
RENSSELAER +   SUNNY     90  64  43 SW15G25   29.81F
VALPARAISO     MOSUNNY   88  63  43 SW16G23   29.78F

$$

LMZ046-743>745-022200-
SOUTHERN LAKE MICHIGAN

STATION/POSITION TIME  TEMP    WIND        PRES    WAVE
                       AIR SEA DIR/SP/G            HT
                 (UTC) (F)     (DEG/KT/KT) (MB)    (FT)
BURNS HARBOR     2020   88     220/ 23     1007.8F
MICHIGAN CITY    2000   88     190/ 26/ 31   N/A
5NW MICH CITY    2100   82 74  240/ 14/ 19   N/A     4

$$

INZ004-005-014>016-021>024-022200-
NORTH CENTRAL INDIANA

CITY           SKY/WX    TMP DP  RH WIND       PRES   REMARKS
ELKHART        MOSUNNY   93  55  27 SW23G35   29.77F
GOSHEN         SUNNY     90  64  42 SW24G32   29.78F
LOGANSPORT +   MOSUNNY   88  63  42 SW18      29.84F
PERU/GRISSOM   SUNNY     90  69  50 SW21      29.83F
ROCHESTER +    SUNNY     91  63  38 SW15G29   29.82F
SOUTH BEND     SUNNY     91  60  35 SW24G35   29.76F
WARSAW +       MOSUNNY   88  68  51 SW17G25   29.81S

$$

INZ006>009-017-018-025>027-022200-
NORTHEAST INDIANA

CITY           SKY/WX    TMP DP  RH WIND       PRES   REMARKS
ANGOLA *+      SUNNY     90  84  84 SW18      29.78F HX 115
AUBURN +       SUNNY     90  57  33 SW14G26   29.81F
FORT WAYNE     MOSUNNY   89  63  41 SW23G30   29.83F
HUNTINGTON +   SUNNY     87  65  47 SW12G23   29.83F

$$

INZ028-029-035-036-043>045-051>053-022200-
WEST CENTRAL INDIANA

CITY           SKY/WX    TMP DP  RH WIND       PRES   REMARKS
CRAWFORDSVL +  MOSUNNY   84  65  51 SW7         N/A
GREENCASTLE +  PTSUNNY   86  64  48 S8        29.89F
LAFAYETTE      SUNNY     88  69  53 SW12      29.84F
TERRE HAUTE    PTSUNNY   90  69  50 SW12      29.88F

$$

INZ030>032-037>040-046>048-054>057-064-065-022200-
CENTRAL INDIANA

CITY           SKY/WX    TMP DP  RH WIND       PRES   REMARKS
FISHERS *+     SUNNY     88  70  55 SW12      29.88F
FRANKFORT +    SUNNY     87  70  57 S16G22    29.88F
GREENWOOD *+   MOSUNNY   86  63  45 SW6       29.90F
INDIANAPOLIS   MOSUNNY   86  66  51 S15       29.88F
-EAGLE CREEK   MOSUNNY   86  67  52 SW9       29.88F
KOKOMO *+      MOSUNNY   88  66  48 W18G29    29.86S
MARION +       SUNNY     87  62  43 SW16G23   29.86F
MT COMFORT *+  SUNNY     86  57  37 S13       29.89F
SHELBYVILLE    SUNNY     86  64  47 SW10      29.89F
ZIONSVILLE +   MOSUNNY   87  65  48 SW14G21   29.89F

$$

INZ033-034-041-042-049-050-058-059-022200-
EAST CENTRAL INDIANA

CITY           SKY/WX    TMP DP  RH WIND       PRES   REMARKS
MUNCIE         SUNNY     86  66  51 SW15      29.87F

$$

INZ060-061-067>069-081>083-085>088-022200-
SOUTHWEST INDIANA

CITY           SKY/WX    TMP DP  RH WIND       PRES   REMARKS
EVANSVILLE     SUNNY     89  65  44 SW9       29.92F
HUNTINGBURG *+ SUNNY     88  63  42 S8        29.92F
WASHINGTON +   SUNNY     88  59  37 SW8       29.90F

$$

INZ062-063-066-070>080-084-089>092-022200-
SOUTH CENTRAL AND SOUTHEAST INDIANA

CITY           SKY/WX    TMP DP  RH WIND       PRES   REMARKS
BLOOMINGTON    MOSUNNY   87  67  51 SW7       29.91F
MADISON *+     SUNNY     86  55  35 S6        29.96F
NORTH VERNON + SUNNY     90  57  33 S6        29.93F
SEYMOUR +      SUNNY     90  63  40 S7        29.91F

$$



USA.gov is the U.S. government's official web portal to all federal, state and local government web resources and services.